Location: Caltech
(34.1382°N, 118.1253°W)
Time: 23:01:52
(UTC-07:00)

SEDSat Delta rocket - Visible Passes

Search period start: 30 August 2016 00:00
Search period end: 09 September 2016 00:00
Orbit: 533 x 1003 km, 31.4° (Epoch: 30 August)

Date Brightness Start Highest point End Pass type
(mag) Time Alt. Az. Time Alt. Az. Time Alt. Az.
30 Aug 4.8 05:43:28 10° SSW 05:46:39 22° SSE 05:50:02 10° ESE visible
31 Aug 4.8 05:04:42 14° S 05:06:32 18° SSE 05:09:26 10° ESE visible
01 Sep 5.1 04:26:50 15° SE 04:26:50 15° SE 04:28:48 10° ESE visible
02 Sep 3.7 05:29:04 17° SW 05:31:48 38° SSE 05:35:43 10° E visible
03 Sep 3.7 04:51:08 32° S 04:51:40 33° SSE 04:55:23 10° E visible
04 Sep 4.8 04:13:11 22° ESE 04:13:11 22° ESE 04:15:05 10° E visible
04 Sep 3.1 05:53:20 10° WSW 05:57:16 58° S 06:01:24 10° E visible
05 Sep 3.0 05:15:22 30° WSW 05:17:07 55° S 05:21:08 10° E visible
06 Sep 3.3 04:37:25 49° SSE 04:37:25 49° SSE 04:40:54 10° E visible
07 Sep 5.1 03:59:28 19° ESE 03:59:28 19° ESE 04:00:44 10° E visible
07 Sep 3.0 05:39:37 16° W 05:42:40 57° S 05:46:41 10° ESE visible
08 Sep 2.9 05:01:42 47° SW 05:02:31 59° S 05:06:30 10° ESE visible
